[[{"header":{"parameterUnit":"m.s-1","parameterCategory":2,"la1":30.2991,"la2":30.254,"lo1":-89.0895,"lo2":-89.0444,"dy":0.0017,"dx":0.0017,"nx":28,"ny":28,"refTime":"2026-02-08T03:00:00:Z","depth":"0","parameterNumber":2,"parameterNumberName":"U-component_of_CURRENTS"},"data":[0,0,0,0,0,0,0,0,0,0,0,0,0,0,0,0,0,0,0,0,0,0,0,0,0,0,0,0,0,0,0,0,0,0,0,0,0,0,0,0,0,0,0,0,0,0,0,0,0,0,0,0,0,0,0,0,0,0,0.3056,0.3058,0,0.3179,0.3179,0.318,0.3061,0.3057,0.3054,0.305,0.2949,0.295,0.295,0,0,0,0,0,0,0,0,0,0,0,0,0,0.2776,0.278,0.3056,0.3058,0.3061,0.3178,0.3179,0.318,0.3062,0.3057,0.3053,0.3048,0.2949,0.295,0.2951,0,0,0,0,0,0,0,0,0,0,0,0,0,0.2888,0.2782,0.3056,0.3024,0.3023,0.3178,0.3179,0.318,0.3063,0.3057,0.3051,0.3046,0.2948,0.2949,0.2951,0.3072,0,0,0.2955,0.2955,0,0,0,0,0,0,0,0,0.2882,0.2897,0.3026,0.3026,0.3025,0.3107,0.3044,0.3136,0.3064,0.3037,0.305,0.3043,0.2992,0.2989,0.3014,0.3068,0.3063,0.2955,0.2955,0.2956,0.2956,0,0,0,0,0,0,0,0.2874,0.2892,0.3094,0.3029,0.3029,0.3023,0.3031,0.3061,0.3033,0.3039,0.3033,0.3065,0.2988,0.3013,0.301,0.3062,0.2955,0.2956,0.2957,0.2957,0.317,0.3174,0,0,0,0,0,0,0.2884,0.2886,0.3091,0.3099,0.295,0.3033,0.3042,0.3079,0.3037,0.303,0.3069,0.3059,0.3014,0.3009,0.3006,0.307,0.2956,0.2957,0.2958,0.3165,0.3171,0.3176,0,0,0,0,0,0,0.2878,0.2902,0.3086,0.3001,0.3025,0.3045,0.3087,0.3084,0.3084,0.3065,0.305,0.3069,0.3009,0.3004,0.3022,0.3067,0.2958,0.2959,0.3159,0.3167,0.3173,0.3247,0,0,0,0,0,0,0.2869,0.2899,0.2946,0.3003,0.3031,0.3177,0.3094,0.3091,0.3119,0.3105,0.3062,0.3047,0.3004,0.3021,0.3024,0.3067,0.296,0.3153,0.3162,0.3171,0.3239,0.3256,0.3271,0,0,0,0,0,0.2859,0.2962,0.2948,0.2974,0.309,0.3181,0.3195,0.3181,0.3125,0.3151,0.3112,0.3047,0.3081,0.3026,0.3028,0.3072,0.3148,0.316,0.317,0.3231,0.3253,0.3271,0,0,0,0,0,0,0.2886,0.2963,0.2947,0.3072,0.3115,0.3164,0.3223,0.3194,0.3194,0.317,0.3103,0.3091,0.3135,0.3117,0.3058,0.3172,0.311,0.3122,0.3156,0.3176,0.3192,0.3173,0.2961,0,0,0,0,0,0.2916,0.2992,0.305,0.3147,0.3178,0.3194,0.3234,0.3218,0.3228,0.322,0.3186,0.3176,0.3201,0.3188,0.3216,0.327,0.326,0.3311,0.3327,0.334,0.3335,0.3377,0.3394,0.3212,0.3212,0.3212,0,0,0.2959,0.3011,0.3057,0.3156,0.3191,0.3234,0.32,0.3273,0.3282,0.3216,0.3225,0.324,0.3237,0.3294,0.3312,0.3263,0.3397,0.3354,0.3364,0.3352,0.339,0.3406,0.3421,0.322,0.3218,0.3217,0,0,0.3052,0.3123,0.3188,0.3227,0.3292,0.3304,0.3318,0.3359,0.3351,0.3383,0.335,0.3385,0.34,0.3413,0.3417,0.3554,0.3497,0.3577,0.3613,0.3655,0.3668,0.3679,0.3707,0.372,0.3562,0.3563,0.3563,0,0.3101,0.3162,0.3226,0.3277,0.3301,0.3322,0.3352,0.3389,0.3416,0.3414,0.3384,0.3447,0.3454,0.3511,0.3566,0.3582,0.3592,0.3521,0.3669,0.368,0.369,0.3716,0.3729,0.3568,0.3567,0.3566,0.3566,0,0.3192,0.3239,0.3295,0.3333,0.338,0.3433,0.3466,0.3496,0.3479,0.3482,0.3539,0.3575,0.3587,0.3634,0.3634,0.3735,0.3716,0.3693,0.3597,0.3711,0.3733,0.3746,0.3575,0.3573,0.3571,0.357,0,0,0.3278,0.3339,0.3345,0.333,0.3397,0.3431,0.3484,0.3514,0.3512,0.3565,0.3567,0.3671,0.368,0.3695,0.3727,0.3781,0.3892,0.3775,0.3774,0.3765,0.3979,0.3896,0.39,0.3886,0.3888,0.389,0.3969,0,0.3302,0.3352,0.3387,0.3408,0.342,0.3453,0.3484,0.352,0.3541,0.3569,0.3631,0.3667,0.3706,0.3724,0.3795,0.3873,0.3926,0.3872,0.3903,0.3904,0.3783,0.3913,0.3786,0.384,0.3981,0.3983,0.3984,0,0.333,0.3351,0.337,0.3373,0.3385,0.3407,0.3421,0.3457,0.3525,0.3545,0.3603,0.3647,0.3765,0.3771,0.3929,0.389,0.3949,0.4,0.4003,0.3899,0.3843,0.3751,0.3856,0.3733,0.4003,0.4001,0.4,0,0.3271,0.3318,0.3308,0.332,0.336,0.3363,0.3379,0.3434,0.3454,0.3535,0.3554,0.3671,0.3726,0.3836,0.3956,0.395,0.4106,0.4092,0.4067,0.4061,0.3944,0.3923,0.3894,0.4193,0.4193,0.4193,0.4193,0,0.325,0.3239,0.3273,0.3271,0.3252,0.3302,0.33,0.3338,0.3401,0.3423,0.3535,0.358,0.3749,0.3851,0.3958,0.405,0.41,0.4096,0.4085,0.3972,0.3953,0.383,0.3776,0.4196,0.4195,0.4195,0.4194,0,0.3178,0.3207,0.3191,0.3219,0.3223,0.3205,0.3239,0.3242,0.3317,0.3357,0.3386,0.353,0.3663,0.3807,0.3982,0.4027,0.4017,0.4142,0.3992,0.3962,0.3803,0.3759,0.3622,0.3519,0.4134,0.4133,0.4131,0,0.3138,0.3127,0.3136,0.3115,0.3125,0.3117,0.3113,0.3185,0.3196,0.3317,0.3327,0.3472,0.3564,0.3777,0.3891,0.4033,0.3941,0.3968,0.3937,0.379,0.3735,0.3611,0.3526,0.3831,0.3828,0.3825,0.3822,0,0.3055,0.3061,0.3048,0.3017,0.3001,0.2981,0.2985,0.2987,0.3075,0.313,0.3197,0.3288,0.3494,0.3594,0.3771,0.3843,0.3757,0.3909,0.3805,0.3539,0.3354,0.3249,0.3776,0.3796,0.3799,0.3801,0.3802,0.3803,0.2973,0.294,0.2925,0.2888,0.2873,0.2829,0.2783,0.2818,0.2834,0.2893,0.3035,0.3139,0.3345,0.3581,0.3613,0.3556,0.3568,0.3501,0.3478,0.3379,0.3212,0.367,0.3637,0.3638,0.364,0.3641,0.3642,0,0.2849,0.283,0.2793,0.2735,0.2682,0.2715,0.2681,0.2633,0.2623,0.2749,0.2821,0.299,0.3101,0.3235,0.3277,0.3169,0.3061,0.3072,0.2883,0.2837,0.3297,0.3214,0.3025,0.3025,0.3026,0.3026,0.3026,0.3026,0.2773,0.2701,0.2691,0.2567,0.253,0.2425,0.2386,0.2357,0.241,0.2452,0.2539,0.2684,0.2871,0.2982,0.2886,0.282,0.2606,0.2494,0.2478,0.2818,0.2856,0.2892,0.2801,0.2529,0.2528,0.1925,0.192,0.1916]},{"header":{"parameterUnit":"m.s-1","parameterCategory":2,"la1":30.2991,"la2":30.254,"lo1":-89.0895,"lo2":-89.0444,"dy":0.0017,"dx":0.0017,"nx":28,"ny":28,"refTime":"2026-02-08T03:00:00:Z","depth":"0","parameterNumber":3,"parameterNumberName":"V-component_of_CURRENTS"},"data":[0,0,0,0,0,0,0,0,0,0,0,0,0,0,0,0,0,0,0,0,0,0,0,0,0,0,0,0,0,0,0,0,0,0,0,0,0,0,0,0,0,0,0,0,0,0,0,0,0,0,0,0,0,0,0,0,0,0,0.0693,0.0694,0,0.0693,0.0692,0.0692,0.0575,0.0572,0.057,0.0567,0.0402,0.04,0.0398,0,0,0,0,0,0,0,0,0,0,0,0,0,0.057,0.0572,0.0693,0.0694,0.0694,0.0693,0.0692,0.0692,0.0575,0.0572,0.0569,0.0566,0.0402,0.04,0.0397,0,0,0,0,0,0,0,0,0,0,0,0,0,0.0597,0.0573,0.0693,0.064,0.0635,0.0693,0.0692,0.0691,0.0576,0.0572,0.0568,0.0565,0.0403,0.04,0.0397,0.0456,0,0,0.0388,0.0387,0,0,0,0,0,0,0,0,0.0595,0.0601,0.0647,0.0644,0.0639,0.0634,0.0588,0.0606,0.0577,0.0593,0.0567,0.0563,0.047,0.0462,0.0465,0.0448,0.0441,0.0388,0.0386,0.0384,0.0384,0,0,0,0,0,0,0,0.0594,0.06,0.0687,0.0648,0.0643,0.0608,0.0607,0.0591,0.0546,0.0591,0.0584,0.0594,0.0466,0.0468,0.046,0.0439,0.0388,0.0385,0.0383,0.0382,0.0445,0.0448,0,0,0,0,0,0,0.0611,0.0599,0.0688,0.0688,0.0613,0.0614,0.0613,0.0636,0.055,0.0536,0.0597,0.0589,0.0475,0.0464,0.0453,0.051,0.0384,0.0382,0.038,0.0442,0.0446,0.045,0,0,0,0,0,0,0.0608,0.0619,0.0688,0.0646,0.0653,0.0621,0.0647,0.0638,0.0634,0.0557,0.0538,0.0602,0.0472,0.0458,0.0439,0.0502,0.038,0.0378,0.0437,0.0443,0.0448,0.0627,0,0,0,0,0,0,0.0605,0.0619,0.0653,0.0648,0.0656,0.0733,0.0651,0.0641,0.0649,0.0637,0.0556,0.0537,0.0468,0.0444,0.0436,0.0496,0.0375,0.0433,0.044,0.0446,0.0617,0.0638,0.0656,0,0,0,0,0,0.0601,0.0668,0.0655,0.0666,0.0701,0.0736,0.0737,0.0696,0.0653,0.0673,0.0609,0.0539,0.048,0.0444,0.0434,0.0494,0.043,0.0438,0.0446,0.0608,0.0634,0.0656,0,0,0,0,0,0,0.0637,0.0663,0.0647,0.072,0.073,0.0718,0.0749,0.0717,0.0689,0.0675,0.0576,0.0555,0.0569,0.0515,0.0478,0.0535,0.0448,0.0454,0.0576,0.0599,0.0618,0.0637,0.0373,0,0,0,0,0,0.0666,0.0713,0.0725,0.0781,0.0798,0.0777,0.079,0.0767,0.0742,0.0725,0.0665,0.0618,0.0603,0.0582,0.0558,0.0586,0.0532,0.0623,0.0643,0.0659,0.067,0.0658,0.0677,0.0475,0.0475,0.0475,0,0,0.0697,0.0717,0.0744,0.0791,0.0798,0.0846,0.0773,0.0814,0.0839,0.0715,0.0728,0.0686,0.0628,0.0656,0.0659,0.0609,0.069,0.0669,0.0684,0.0685,0.0668,0.0687,0.0704,0.0481,0.048,0.0479,0,0,0.0785,0.0803,0.0873,0.0892,0.0925,0.0916,0.0933,0.0933,0.0918,0.093,0.0862,0.0861,0.0811,0.0802,0.0784,0.0905,0.08,0.0898,0.1003,0.0992,0.1008,0.1021,0.098,0.0988,0.0901,0.0902,0.0902,0,0.0822,0.0897,0.0898,0.0965,0.0986,0.0953,0.1017,0.1024,0.1009,0.1011,0.0949,0.0931,0.0888,0.0937,0.0977,0.0951,0.0905,0.0914,0.1016,0.1028,0.1038,0.0992,0.0999,0.0911,0.091,0.0909,0.0908,0,0.0958,0.1008,0.1054,0.1115,0.1145,0.1197,0.1202,0.1224,0.1188,0.1173,0.1199,0.1147,0.1126,0.1136,0.1085,0.1164,0.1093,0.1046,0.0953,0.1069,0.1013,0.1017,0.0925,0.0922,0.0919,0.0916,0,0,0.1048,0.1131,0.1143,0.1172,0.122,0.1253,0.1318,0.1356,0.1387,0.1369,0.14,0.1405,0.1363,0.1346,0.1304,0.1303,0.1347,0.1213,0.1208,0.1165,0.1295,0.1208,0.1202,0.1305,0.1307,0.1308,0.1225,0,0.1141,0.1261,0.1286,0.138,0.1429,0.1425,0.1478,0.1507,0.1498,0.1524,0.15,0.151,0.1448,0.1442,0.1444,0.1369,0.1364,0.1372,0.1193,0.1188,0.1092,0.1207,0.1158,0.1077,0.1228,0.1228,0.1229,0,0.1249,0.1308,0.1413,0.1472,0.1499,0.1554,0.1608,0.1654,0.1691,0.1683,0.1699,0.1658,0.1683,0.1598,0.1536,0.1534,0.1441,0.1371,0.1365,0.1223,0.1109,0.0985,0.1076,0.0887,0.1233,0.1232,0.1232,0,0.1264,0.1382,0.1451,0.1478,0.1562,0.1608,0.165,0.1698,0.1741,0.1787,0.1809,0.1805,0.1793,0.1707,0.1571,0.1549,0.1469,0.141,0.1247,0.1237,0.113,0.1108,0.1012,0.1373,0.1373,0.1373,0.1374,0,0.132,0.1377,0.1464,0.1503,0.1598,0.1638,0.1732,0.1772,0.1836,0.1908,0.1891,0.1933,0.1818,0.1752,0.1619,0.1446,0.1501,0.1288,0.1228,0.1191,0.1177,0.0951,0.0857,0.137,0.1371,0.1372,0.1372,0,0.132,0.1371,0.146,0.1564,0.1603,0.1667,0.1788,0.1856,0.1904,0.1999,0.2019,0.2024,0.1945,0.1805,0.1652,0.1495,0.1223,0.1263,0.1214,0.115,0.0809,0.0728,0.0571,0.0491,0.1072,0.107,0.1068,0,0.1333,0.1375,0.1498,0.1557,0.1612,0.1715,0.1794,0.1879,0.1955,0.2057,0.2108,0.2073,0.2073,0.1812,0.1536,0.1285,0.1142,0.1045,0.1009,0.0806,0.0671,0.0631,0.0574,0.0933,0.093,0.0928,0.0926,0,0.1362,0.1397,0.1471,0.1587,0.1682,0.1804,0.1921,0.1988,0.2094,0.2174,0.2261,0.2272,0.2038,0.178,0.1422,0.1224,0.0898,0.0985,0.0802,0.0589,0.0514,0.0402,0.0947,0.0904,0.0906,0.0908,0.0909,0.091,0.1377,0.1432,0.152,0.1636,0.1742,0.1878,0.1972,0.2092,0.2216,0.2343,0.2363,0.2405,0.201,0.1526,0.1238,0.0651,0.0724,0.0487,0.0413,0.0398,0.0306,0.0792,0.0663,0.0664,0.0664,0.0665,0.0665,0,0.1406,0.147,0.1571,0.1707,0.1819,0.1881,0.2049,0.2144,0.2282,0.2408,0.2491,0.2312,0.181,0.1308,0.0538,0.0163,0.0057,-0.0035,-0.0096,-0.0119,0.0326,0.0303,0.0057,0.0057,0.0057,0.0058,0.0058,0.0058,0.1421,0.1514,0.1575,0.175,0.1842,0.1989,0.2082,0.2226,0.2344,0.2463,0.2484,0.2503,0.2041,0.0734,-0.0144,-0.0324,-0.0548,-0.0608,-0.0686,-0.0398,-0.0354,-0.0312,-0.0356,-0.0736,-0.0737,-0.1091,-0.1095,-0.1098]}],[{"header":{"parameterUnit":"m.s-1","parameterCategory":2,"la1":30.2991,"la2":30.254,"lo1":-89.0895,"lo2":-89.0444,"dy":0.0017,"dx":0.0017,"nx":28,"ny":28,"refTime":"2026-02-08T03:00:00:Z","depth":"2","parameterNumber":2,"parameterNumberName":"U-component_of_CURRENTS"},"data":[0,0,0,0,0,0,0,0,0,0,0,0,0,0,0,0,0,0,0,0,0,0,0,0,0,0,0,0,0,0,0,0,0,0,0,0,0,0,0,0,0,0,0,0,0,0,0,0,0,0,0,0,0,0,0,0,0,0,0.1928,0.1927,0,0.1972,0.1974,0.1975,0.2015,0.2014,0.2014,0.2013,0.2068,0.207,0.2072,0,0,0,0,0,0,0,0,0,0,0,0,0,0.1906,0.1907,0.1928,0.1927,0.1927,0.1972,0.1974,0.1976,0.2015,0.2014,0.2014,0.2013,0.2067,0.207,0.2072,0,0,0,0,0,0,0,0,0,0,0,0,0,0.194,0.1907,0.1928,0.1944,0.1945,0.1972,0.1974,0.1976,0.2015,0.2014,0.2013,0.2013,0.2067,0.207,0.2072,0.2106,0,0,0.2081,0.2083,0,0,0,0,0,0,0,0,0.1938,0.1942,0.1942,0.1943,0.1944,0.1978,0.1986,0.2016,0.2015,0.2,0.2013,0.2012,0.2033,0.2038,0.2063,0.2108,0.211,0.2082,0.2083,0.2085,0.2085,0,0,0,0,0,0,0,0.1935,0.194,0.1956,0.1942,0.1943,0.1959,0.1964,0.1993,0.2028,0.2001,0.2001,0.199,0.2035,0.206,0.2065,0.2111,0.2081,0.2084,0.2086,0.2087,0.2175,0.2175,0,0,0,0,0,0,0.1908,0.1938,0.1955,0.1956,0.1927,0.1959,0.1965,0.1977,0.2028,0.2032,0.199,0.1991,0.2056,0.2061,0.2067,0.2173,0.2085,0.2087,0.2089,0.2174,0.2175,0.2175,0,0,0,0,0,0,0.1908,0.191,0.1953,0.1938,0.1943,0.1959,0.1972,0.1978,0.2024,0.2017,0.2024,0.2031,0.2055,0.2062,0.2121,0.2172,0.2089,0.2091,0.2173,0.2174,0.2175,0.2343,0,0,0,0,0,0,0.1908,0.1911,0.1929,0.1937,0.1943,0.1982,0.1972,0.1979,0.2011,0.2014,0.2055,0.2058,0.2055,0.2117,0.2124,0.2174,0.2093,0.2173,0.2174,0.2175,0.2337,0.2349,0.236,0,0,0,0,0,0.1907,0.1905,0.193,0.1932,0.1962,0.1982,0.199,0.2003,0.2014,0.2044,0.2077,0.2058,0.2127,0.2122,0.213,0.2182,0.2172,0.2173,0.2175,0.2331,0.2347,0.236,0,0,0,0,0,0,0.1909,0.1909,0.1936,0.1939,0.1972,0.1985,0.1988,0.2023,0.2076,0.2066,0.2093,0.21,0.2158,0.2139,0.2133,0.2199,0.2135,0.2138,0.2251,0.2266,0.2278,0.2162,0.2096,0,0,0,0,0,0.1918,0.1919,0.1941,0.1952,0.1955,0.1991,0.2005,0.2018,0.2048,0.2072,0.2119,0.2138,0.2166,0.2194,0.2202,0.2266,0.2218,0.2288,0.23,0.2311,0.2216,0.2259,0.2268,0.218,0.218,0.218,0,0,0.1927,0.192,0.1929,0.1953,0.1967,0.1979,0.2,0.2007,0.2035,0.2067,0.2138,0.2185,0.2187,0.2251,0.2273,0.2251,0.232,0.2313,0.2323,0.2219,0.2262,0.227,0.2278,0.2181,0.218,0.218,0,0,0.1904,0.1933,0.1918,0.1933,0.1938,0.197,0.1982,0.2028,0.2063,0.2128,0.2162,0.2219,0.2285,0.2304,0.2314,0.2383,0.2375,0.2423,0.2414,0.2464,0.2471,0.2476,0.2474,0.2478,0.2442,0.2443,0.2443,0,0.1908,0.1905,0.1925,0.1901,0.1915,0.197,0.1976,0.2015,0.2092,0.2137,0.2142,0.2257,0.2274,0.2349,0.2369,0.2406,0.2432,0.2385,0.2482,0.2486,0.2489,0.2485,0.2487,0.2451,0.245,0.2449,0.2448,0,0.1846,0.1875,0.1858,0.1866,0.1898,0.1902,0.1949,0.202,0.2079,0.2127,0.222,0.2265,0.2332,0.2376,0.2386,0.2453,0.2466,0.2499,0.2457,0.2509,0.2501,0.25,0.2463,0.246,0.2457,0.2455,0,0,0.1799,0.1814,0.1821,0.1846,0.1877,0.1901,0.1955,0.2039,0.21,0.2166,0.2248,0.2294,0.2353,0.2357,0.2436,0.2455,0.2528,0.2494,0.2493,0.2504,0.2635,0.2591,0.2586,0.2644,0.2644,0.2643,0.264,0,0.1762,0.1745,0.1764,0.1807,0.1824,0.1895,0.1954,0.2032,0.2122,0.2225,0.2259,0.2354,0.2346,0.2433,0.2449,0.2517,0.2526,0.2521,0.2561,0.2557,0.2527,0.2582,0.242,0.2398,0.2638,0.2638,0.2638,0,0.1708,0.1716,0.1741,0.1821,0.1831,0.1881,0.2021,0.2069,0.2197,0.2264,0.2349,0.241,0.2463,0.2452,0.2502,0.2534,0.2549,0.2563,0.2567,0.243,0.251,0.2371,0.2387,0.2636,0.2636,0.2636,0.2636,0,0.1692,0.1719,0.1758,0.1768,0.1848,0.1913,0.1982,0.2112,0.2172,0.2326,0.2395,0.2469,0.2531,0.2549,0.2564,0.2579,0.2591,0.2635,0.2578,0.2576,0.2371,0.235,0.2609,0.2609,0.2609,0.2609,0.2609,0,0.1655,0.1684,0.177,0.1782,0.1868,0.1922,0.2033,0.2128,0.2243,0.231,0.2431,0.2493,0.2564,0.2598,0.2587,0.2569,0.2623,0.2521,0.2566,0.243,0.2415,0.2546,0.2539,0.2609,0.2609,0.2609,0.2609,0,0.1639,0.167,0.1721,0.1819,0.1869,0.1937,0.2061,0.2123,0.2252,0.2351,0.2403,0.2531,0.2584,0.2613,0.2646,0.2605,0.2594,0.257,0.2375,0.2394,0.2531,0.2532,0.2496,0.2494,0.2492,0.2491,0.249,0,0.1625,0.1659,0.1764,0.1802,0.1859,0.1963,0.203,0.2147,0.2194,0.2351,0.2373,0.2492,0.2531,0.256,0.2535,0.2507,0.2558,0.2333,0.2284,0.2467,0.2516,0.252,0.2523,0.2099,0.2095,0.2092,0.2089,0,0.162,0.1668,0.17,0.1793,0.1871,0.194,0.2035,0.207,0.2177,0.223,0.2293,0.2346,0.2417,0.2335,0.2343,0.2302,0.2329,0.2263,0.2531,0.216,0.2096,0.2144,0.2159,0.2059,0.2062,0.2064,0.2065,0.2067,0.162,0.1645,0.1699,0.1767,0.1844,0.1903,0.1917,0.1981,0.2014,0.2038,0.2106,0.2104,0.2168,0.2088,0.2031,0.2014,0.2155,0.2065,0.2075,0.2088,0.205,0.1988,0.192,0.1922,0.1923,0.1925,0.1927,0,0.1603,0.1622,0.1671,0.1711,0.1731,0.1834,0.1886,0.1834,0.1817,0.1865,0.1843,0.1686,0.1673,0.1755,0.1686,0.1691,0.1667,0.1629,0.1587,0.162,0.1648,0.1586,0.1333,0.1331,0.1329,0.1327,0,0,0.1582,0.1574,0.1577,0.1574,0.1631,0.1637,0.1655,0.1604,0.1597,0.1498,0.1474,0.1538,0.1687,0.1458,0.1454,0.1388,0.1483,0.1338,0.1821,0.1804,0.1829,0.1916,0.186,0,0,0,0,0]},{"header":{"parameterUnit":"m.s-1","parameterCategory":2,"la1":30.2991,"la2":30.254,"lo1":-89.0895,"lo2":-89.0444,"dy":0.0017,"dx":0.0017,"nx":28,"ny":28,"refTime":"2026-02-08T03:00:00:Z","depth":"2","parameterNumber":3,"parameterNumberName":"V-component_of_CURRENTS"},"data":[0,0,0,0,0,0,0,0,0,0,0,0,0,0,0,0,0,0,0,0,0,0,0,0,0,0,0,0,0,0,0,0,0,0,0,0,0,0,0,0,0,0,0,0,0,0,0,0,0,0,0,0,0,0,0,0,0,0,-0.0056,-0.0057,0,-0.0109,-0.0109,-0.0109,-0.0116,-0.0117,-0.0117,-0.0117,-0.0182,-0.0184,-0.0185,0,0,0,0,0,0,0,0,0,0,0,0,0,0.0009,0.0009,-0.0056,-0.0057,-0.0059,-0.0109,-0.0109,-0.0109,-0.0116,-0.0117,-0.0117,-0.0118,-0.0182,-0.0183,-0.0185,0,0,0,0,0,0,0,0,0,0,0,0,0,-0.002,0.0009,-0.0055,-0.0075,-0.0079,-0.0109,-0.0109,-0.0109,-0.0116,-0.0117,-0.0117,-0.0118,-0.0181,-0.0183,-0.0185,-0.0187,0,0,-0.0192,-0.0193,0,0,0,0,0,0,0,0,-0.0018,-0.0021,-0.0071,-0.0074,-0.0078,-0.0115,-0.0111,-0.0139,-0.0116,-0.0092,-0.0117,-0.0118,-0.0167,-0.017,-0.0165,-0.019,-0.0193,-0.0192,-0.0193,-0.0194,-0.0195,0,0,0,0,0,0,0,-0.0016,-0.0019,-0.0067,-0.0073,-0.0077,-0.0093,-0.0096,-0.0115,-0.0118,-0.0094,-0.0097,-0.0118,-0.0167,-0.0163,-0.0167,-0.0194,-0.0192,-0.0194,-0.0195,-0.0196,-0.0274,-0.0275,0,0,0,0,0,0,-0.0026,-0.0017,-0.0066,-0.007,-0.0059,-0.0094,-0.0098,-0.0095,-0.0118,-0.0125,-0.0117,-0.0118,-0.0159,-0.0164,-0.0169,-0.0181,-0.0194,-0.0196,-0.0197,-0.0273,-0.0274,-0.0275,0,0,0,0,0,0,-0.0024,-0.0029,-0.0064,-0.0054,-0.006,-0.0096,-0.0092,-0.0096,-0.009,-0.0137,-0.0142,-0.0109,-0.016,-0.0166,-0.0181,-0.0183,-0.0197,-0.0199,-0.0272,-0.0274,-0.0275,-0.0199,0,0,0,0,0,0,-0.0021,-0.0027,-0.0023,-0.0053,-0.0062,-0.008,-0.0093,-0.0097,-0.0107,-0.0108,-0.0132,-0.0138,-0.0161,-0.0178,-0.0183,-0.0186,-0.02,-0.0271,-0.0273,-0.0274,-0.0201,-0.0198,-0.0195,0,0,0,0,0,-0.0018,-0.0021,-0.0021,-0.0028,-0.0055,-0.0081,-0.0085,-0.0107,-0.0106,-0.0101,-0.0115,-0.0137,-0.0193,-0.0179,-0.0185,-0.0189,-0.027,-0.0272,-0.0274,-0.0202,-0.0198,-0.0195,0,0,0,0,0,0,0.0006,-0.0024,-0.0025,-0.0036,-0.0055,-0.0086,-0.0098,-0.01,-0.0104,-0.0113,-0.0132,-0.0139,-0.0158,-0.0188,-0.0172,-0.0223,-0.0242,-0.0245,-0.0185,-0.0182,-0.0179,-0.0234,-0.0202,0,0,0,0,0,0.0014,0.0009,-0.0021,-0.0028,-0.0041,-0.006,-0.0073,-0.0088,-0.0106,-0.0107,-0.0112,-0.0141,-0.0171,-0.0185,-0.0214,-0.0228,-0.0271,-0.0244,-0.0242,-0.0239,-0.0291,-0.0348,-0.0355,-0.0281,-0.0281,-0.0281,0,0,0.0019,0.0001,-0.0002,-0.0023,-0.0041,-0.0056,-0.0066,-0.0094,-0.0099,-0.0116,-0.0107,-0.0125,-0.0174,-0.0192,-0.0206,-0.0215,-0.0269,-0.0241,-0.0238,-0.0294,-0.0351,-0.0358,-0.0364,-0.0283,-0.0282,-0.0282,0,0,0.0015,0.0014,0.0004,-0.0007,-0.0044,-0.0059,-0.0063,-0.008,-0.0081,-0.0082,-0.0103,-0.0129,-0.0144,-0.0188,-0.0214,-0.0221,-0.025,-0.0219,-0.0247,-0.0299,-0.0305,-0.0312,-0.0309,-0.0317,-0.0219,-0.0219,-0.0218,0,0.0018,0.0015,-0.0003,-0.0016,-0.0027,-0.0056,-0.0065,-0.0075,-0.0086,-0.0096,-0.008,-0.0134,-0.0158,-0.0217,-0.0224,-0.0217,-0.0233,-0.0241,-0.0294,-0.0302,-0.031,-0.0307,-0.0316,-0.0215,-0.0216,-0.0216,-0.0216,0,0.0012,0.001,-0.0,-0.0016,-0.0028,-0.0044,-0.0069,-0.0071,-0.007,-0.0086,-0.0119,-0.0144,-0.019,-0.0189,-0.0211,-0.0281,-0.0264,-0.0274,-0.0295,-0.0313,-0.0307,-0.0318,-0.021,-0.0212,-0.0213,-0.0213,0,0,0.0006,0.0,-0.0005,0.0005,-0.0026,-0.0034,-0.0057,-0.0086,-0.0101,-0.0114,-0.0131,-0.0191,-0.0212,-0.025,-0.0267,-0.032,-0.0355,-0.0325,-0.0329,-0.031,-0.0429,-0.0364,-0.0369,-0.0362,-0.0365,-0.0368,-0.0376,0,0.0006,0.0004,-0.0005,-0.0002,-0.0004,-0.0027,-0.0032,-0.0067,-0.0092,-0.011,-0.0175,-0.0201,-0.0231,-0.024,-0.0305,-0.0342,-0.0393,-0.0351,-0.0431,-0.0433,-0.0364,-0.0384,-0.0361,-0.0365,-0.0387,-0.0389,-0.039,0,-0.0003,0.0001,0.0004,0.0023,0.002,0.0006,-0.0018,-0.0023,-0.0089,-0.0106,-0.0178,-0.021,-0.0294,-0.0307,-0.0421,-0.0385,-0.0432,-0.0462,-0.0462,-0.0458,-0.0392,-0.0368,-0.0384,-0.0409,-0.0407,-0.0406,-0.0404,0,0.0011,0.0011,0.0023,0.0026,0.0029,0.0013,0.0008,-0.0044,-0.004,-0.0123,-0.0131,-0.0235,-0.0257,-0.0362,-0.0414,-0.0426,-0.0513,-0.0526,-0.0517,-0.0509,-0.0544,-0.0535,-0.0649,-0.0649,-0.0649,-0.0649,-0.0649,0,0.0026,0.0035,0.0022,0.0034,0.0037,0.003,0.0022,-0.0008,-0.0038,-0.0019,-0.0133,-0.0123,-0.028,-0.0326,-0.041,-0.0469,-0.0507,-0.055,-0.053,-0.0507,-0.0495,-0.0598,-0.0592,-0.0649,-0.0649,-0.0649,-0.0649,0,0.0038,0.0041,0.0057,0.0054,0.0041,0.0042,0.0046,0.0054,0.0012,0.003,0.0014,-0.005,-0.0097,-0.0221,-0.0346,-0.0428,-0.0509,-0.0526,-0.0454,-0.0429,-0.0474,-0.0464,-0.0547,-0.0545,-0.0544,-0.0542,-0.0541,0,0.0048,0.0049,0.0058,0.0069,0.0057,0.0056,0.0066,0.0057,0.0098,0.0115,0.0156,0.0094,0.0113,-0.004,-0.0217,-0.0358,-0.0416,-0.044,-0.0499,-0.0503,-0.0476,-0.0468,-0.046,-0.0485,-0.0483,-0.0482,-0.0481,0,0.006,0.0057,0.0085,0.0095,0.0102,0.0131,0.0161,0.021,0.0253,0.0309,0.0418,0.0427,0.0264,0.0136,-0.0097,-0.0205,-0.0422,-0.0419,-0.0471,-0.0502,-0.0443,-0.0415,-0.0411,-0.0471,-0.0472,-0.0473,-0.0474,-0.0474,0.0074,0.0089,0.0121,0.0148,0.0165,0.0221,0.029,0.0386,0.051,0.0636,0.063,0.0665,0.0432,0.0168,-0.0031,-0.0283,-0.0308,-0.0413,-0.0419,-0.0425,-0.0405,-0.0346,-0.0348,-0.0349,-0.0349,-0.0349,-0.0349,0,0.0095,0.0126,0.0167,0.0239,0.0301,0.0264,0.038,0.0498,0.0714,0.0799,0.0901,0.0725,0.0546,0.0283,-0.0072,-0.0283,-0.034,-0.0347,-0.0387,-0.0395,-0.0403,-0.0384,-0.0321,-0.0322,-0.0322,-0.0322,0,0,0.0117,0.0183,0.0225,0.0357,0.039,0.0487,0.0562,0.0735,0.0854,0.1001,0.1024,0.095,0.0637,0.0391,0.0088,-0.0108,-0.0199,-0.0147,-0.015,-0.0169,-0.0173,-0.0424,-0.04,0,0,0,0,0]}],[{"header":{"parameterUnit":"m.s-1","parameterCategory":2,"la1":30.2991,"la2":30.254,"lo1":-89.0895,"lo2":-89.0444,"dy":0.0017,"dx":0.0017,"nx":28,"ny":28,"refTime":"2026-02-08T03:00:00:Z","depth":"4","parameterNumber":2,"parameterNumberName":"U-component_of_CURRENTS"},"data":[0,0,0,0,0,0,0,0,0,0,0,0,0,0,0,0,0,0,0,0,0,0,0,0,0,0,0,0,0,0,0,0,0,0,0,0,0,0,0,0,0,0,0,0,0,0,0,0,0,0,0,0,0,0,0,0,0,0,0.0935,0.0935,0,0.0922,0.0922,0.0922,0.0961,0.0962,0.0962,0.0963,0.1044,0.1045,0.1047,0,0,0,0,0,0,0,0,0,0,0,0,0,0.0976,0.0976,0.0935,0.0935,0.0934,0.0922,0.0922,0.0922,0.0961,0.0962,0.0963,0.0963,0.1043,0.1045,0.1047,0,0,0,0,0,0,0,0,0,0,0,0,0,0.0965,0.0976,0.0935,0.0948,0.0948,0.0922,0.0922,0.0922,0.0961,0.0962,0.0963,0.0964,0.1043,0.1045,0.1047,0.104,0,0,0.1054,0.1055,0,0,0,0,0,0,0,0,0.0966,0.0965,0.0947,0.0947,0.0947,0.094,0.0966,0.0964,0.096,0.0962,0.0963,0.0964,0.1014,0.1018,0.1019,0.1043,0.1047,0.1054,0.1056,0.1057,0.1057,0,0,0,0,0,0,0,0.0967,0.0965,0.0935,0.0946,0.0946,0.0947,0.0948,0.0966,0.0988,0.0962,0.0963,0.0953,0.1015,0.1017,0.1022,0.1048,0.1054,0.1056,0.1058,0.1058,0.1144,0.1145,0,0,0,0,0,0,0.0957,0.0966,0.0936,0.0934,0.0954,0.0946,0.0946,0.0945,0.0985,0.099,0.0952,0.0954,0.1013,0.1019,0.1025,0.1071,0.1057,0.1059,0.106,0.1143,0.1144,0.1145,0,0,0,0,0,0,0.0959,0.0955,0.0936,0.0945,0.0942,0.0943,0.0942,0.0944,0.097,0.0976,0.0984,0.0977,0.1014,0.1022,0.1052,0.1073,0.106,0.1062,0.1142,0.1143,0.1144,0.113,0,0,0,0,0,0,0.096,0.0956,0.0967,0.0945,0.0941,0.0939,0.0941,0.0943,0.0957,0.0962,0.1,0.1007,0.1015,0.1049,0.1054,0.1076,0.1063,0.114,0.1142,0.1144,0.113,0.1131,0.1132,0,0,0,0,0,0.0962,0.0945,0.0968,0.0964,0.0951,0.0939,0.0939,0.0946,0.0958,0.0973,0.0991,0.1007,0.1065,0.105,0.1057,0.108,0.114,0.1142,0.1144,0.1129,0.1131,0.1132,0,0,0,0,0,0,0.0964,0.0946,0.0971,0.0952,0.0963,0.0944,0.0944,0.0957,0.0982,0.0995,0.1009,0.1017,0.1056,0.1069,0.1053,0.1112,0.1109,0.1112,0.1096,0.1097,0.1099,0.1113,0.1065,0,0,0,0,0,0.0971,0.0964,0.096,0.0955,0.0956,0.0963,0.0964,0.0977,0.0982,0.0996,0.1022,0.1049,0.1065,0.1082,0.1106,0.1129,0.114,0.1153,0.1154,0.1155,0.1173,0.1183,0.1186,0.1152,0.1152,0.1152,0,0,0.0966,0.0961,0.0956,0.0958,0.0964,0.0964,0.0968,0.0975,0.0987,0.1001,0.1037,0.1059,0.1074,0.1101,0.1121,0.1117,0.1171,0.1158,0.1158,0.1176,0.1185,0.1188,0.1191,0.1153,0.1153,0.1153,0,0,0.0944,0.0958,0.0948,0.0958,0.0972,0.0975,0.0984,0.0995,0.1017,0.1046,0.1058,0.1088,0.1124,0.1131,0.1137,0.1161,0.1179,0.1182,0.1197,0.1205,0.1207,0.121,0.1221,0.1225,0.1179,0.1179,0.1179,0,0.0945,0.094,0.0945,0.0946,0.0952,0.0982,0.0985,0.1001,0.1029,0.1051,0.1065,0.112,0.1134,0.1149,0.1161,0.1164,0.1177,0.1182,0.1205,0.1207,0.121,0.1222,0.1226,0.1178,0.1178,0.1178,0.1178,0,0.0916,0.0929,0.0921,0.0939,0.095,0.0956,0.0977,0.1013,0.1048,0.107,0.1121,0.1137,0.1172,0.1179,0.1177,0.1208,0.1214,0.1203,0.1195,0.1212,0.1224,0.1228,0.1178,0.1178,0.1178,0.1178,0,0,0.0867,0.0895,0.0898,0.0924,0.0952,0.0957,0.0984,0.1018,0.1051,0.1096,0.1136,0.1161,0.1194,0.1204,0.1211,0.1223,0.1244,0.1229,0.123,0.1232,0.1273,0.1227,0.1227,0.1237,0.1238,0.1239,0.1271,0,0.0852,0.0859,0.0875,0.09,0.0908,0.0952,0.098,0.1024,0.1067,0.112,0.1149,0.1201,0.1192,0.1227,0.123,0.126,0.1258,0.1238,0.1266,0.1267,0.1215,0.1231,0.1242,0.1274,0.1275,0.1276,0.1276,0,0.0817,0.0834,0.0849,0.0907,0.0915,0.0942,0.1007,0.1037,0.1107,0.1148,0.1194,0.1234,0.1278,0.1264,0.1298,0.1291,0.1284,0.129,0.1291,0.1261,0.1229,0.1257,0.1285,0.1284,0.1283,0.1283,0.1282,0,0.078,0.0815,0.0835,0.0849,0.091,0.0945,0.0989,0.1057,0.11,0.1182,0.1232,0.1277,0.1326,0.1329,0.1354,0.1336,0.1388,0.1353,0.1294,0.1291,0.1328,0.1325,0.1355,0.1355,0.1355,0.1355,0.1354,0,0.0743,0.0763,0.083,0.0842,0.0888,0.0942,0.1005,0.1054,0.1141,0.1194,0.1254,0.1299,0.1349,0.1386,0.1377,0.1365,0.14,0.131,0.1298,0.1321,0.1318,0.1331,0.1328,0.1356,0.1355,0.1355,0.1355,0,0.0688,0.0732,0.0762,0.084,0.087,0.0906,0.1015,0.1056,0.115,0.122,0.1259,0.1345,0.1396,0.1427,0.1453,0.1397,0.1392,0.1366,0.1413,0.1402,0.1279,0.1275,0.1301,0.1299,0.1298,0.1297,0.1296,0,0.0657,0.0665,0.0748,0.0773,0.0813,0.0885,0.0933,0.1045,0.1092,0.123,0.1254,0.1355,0.1395,0.1393,0.1426,0.1416,0.1384,0.1368,0.1299,0.1289,0.1275,0.1273,0.127,0.1295,0.1294,0.1294,0.1294,0,0.0594,0.0632,0.0666,0.0717,0.0771,0.0819,0.0905,0.0943,0.1068,0.1166,0.1232,0.1274,0.1326,0.1352,0.1368,0.1347,0.1379,0.1355,0.1356,0.1291,0.1282,0.1269,0.1268,0.129,0.129,0.1291,0.1291,0,0.0554,0.0565,0.0616,0.0658,0.0709,0.0737,0.0796,0.0871,0.0945,0.1108,0.1128,0.1224,0.1316,0.1317,0.1328,0.1324,0.1283,0.1217,0.1224,0.1229,0.1192,0.117,0.1141,0,0,0,0,0,0.051,0.0522,0.055,0.0596,0.0637,0.0669,0.0764,0.083,0.0964,0.0983,0.1061,0.111,0.1157,0.1208,0.1185,0.1279,0.1275,0.1245,0.1199,0.1268,0.1273,0.1236,0,0,0,0,0,0,0.0488,0.051,0.053,0.0528,0.0542,0.0585,0.0639,0.0729,0.0758,0.0897,0.0929,0.1036,0.1093,0.1154,0.1159,0.1174,0.1121,0.1314,0.1311,0.1265,0.127,0.1273,0.1237,0,0,0,0,0]},{"header":{"parameterUnit":"m.s-1","parameterCategory":2,"la1":30.2991,"la2":30.254,"lo1":-89.0895,"lo2":-89.0444,"dy":0.0017,"dx":0.0017,"nx":28,"ny":28,"refTime":"2026-02-08T03:00:00:Z","depth":"4","parameterNumber":3,"parameterNumberName":"V-component_of_CURRENTS"},"data":[0,0,0,0,0,0,0,0,0,0,0,0,0,0,0,0,0,0,0,0,0,0,0,0,0,0,0,0,0,0,0,0,0,0,0,0,0,0,0,0,0,0,0,0,0,0,0,0,0,0,0,0,0,0,0,0,0,0,-0.0034,-0.0035,0,-0.0079,-0.0079,-0.008,-0.0096,-0.0096,-0.0096,-0.0096,-0.0137,-0.0138,-0.0139,0,0,0,0,0,0,0,0,0,0,0,0,0,-0.0012,-0.0012,-0.0034,-0.0035,-0.0035,-0.0079,-0.0079,-0.008,-0.0097,-0.0096,-0.0096,-0.0096,-0.0136,-0.0138,-0.0139,0,0,0,0,0,0,0,0,0,0,0,0,0,-0.0035,-0.0012,-0.0034,-0.0049,-0.0051,-0.0079,-0.0079,-0.008,-0.0097,-0.0096,-0.0096,-0.0096,-0.0136,-0.0138,-0.0139,-0.0154,0,0,-0.0145,-0.0146,0,0,0,0,0,0,0,0,-0.0034,-0.0036,-0.0046,-0.0048,-0.005,-0.0082,-0.0086,-0.0105,-0.0097,-0.0079,-0.0096,-0.0096,-0.0118,-0.0121,-0.013,-0.0156,-0.0158,-0.0145,-0.0146,-0.0147,-0.0147,0,0,0,0,0,0,0,-0.0032,-0.0034,-0.0052,-0.0047,-0.0049,-0.007,-0.0073,-0.009,-0.0099,-0.008,-0.0082,-0.0087,-0.0119,-0.0128,-0.0131,-0.0159,-0.0145,-0.0147,-0.0148,-0.0148,-0.0222,-0.0223,0,0,0,0,0,0,-0.0024,-0.0033,-0.005,-0.0053,-0.0041,-0.007,-0.0073,-0.0072,-0.0099,-0.0103,-0.0087,-0.0088,-0.0125,-0.0129,-0.0133,-0.015,-0.0147,-0.0149,-0.015,-0.0221,-0.0222,-0.0223,0,0,0,0,0,0,-0.0024,-0.0025,-0.0048,-0.0044,-0.0049,-0.0071,-0.0069,-0.0073,-0.0082,-0.0104,-0.0108,-0.0093,-0.0125,-0.013,-0.0152,-0.0152,-0.0149,-0.0151,-0.022,-0.0222,-0.0223,-0.0186,0,0,0,0,0,0,-0.0023,-0.0025,-0.0022,-0.0044,-0.0049,-0.0062,-0.0069,-0.0074,-0.0086,-0.0087,-0.011,-0.0114,-0.0126,-0.0149,-0.0154,-0.0154,-0.0152,-0.0219,-0.0221,-0.0223,-0.0186,-0.0186,-0.0186,0,0,0,0,0,-0.0022,-0.0013,-0.0021,-0.0024,-0.0044,-0.0062,-0.0066,-0.0082,-0.0086,-0.009,-0.0109,-0.0113,-0.0163,-0.0151,-0.0157,-0.0157,-0.0218,-0.022,-0.0222,-0.0187,-0.0186,-0.0186,0,0,0,0,0,0,-0.0005,-0.0015,-0.0024,-0.002,-0.004,-0.0065,-0.0067,-0.0082,-0.0101,-0.0101,-0.0121,-0.0126,-0.0147,-0.0163,-0.015,-0.0187,-0.0193,-0.0196,-0.0164,-0.0164,-0.0164,-0.0139,-0.0154,0,0,0,0,0,-0.0,0.0005,-0.0016,-0.0016,-0.002,-0.0045,-0.0055,-0.0068,-0.0088,-0.0096,-0.0114,-0.0137,-0.016,-0.017,-0.0192,-0.0209,-0.0219,-0.0217,-0.0217,-0.0216,-0.0203,-0.0229,-0.0229,-0.023,-0.023,-0.023,0,0,0.0004,-0.0001,0.0001,-0.0013,-0.0026,-0.0025,-0.005,-0.0062,-0.0063,-0.0098,-0.0103,-0.0136,-0.0167,-0.0186,-0.0197,-0.0197,-0.0222,-0.0219,-0.0218,-0.0204,-0.0231,-0.023,-0.023,-0.0231,-0.0231,-0.0231,0,0,0.0019,0.0014,0.0025,0.0015,-0.0003,-0.0015,-0.0017,-0.0042,-0.0053,-0.0074,-0.0098,-0.0131,-0.0163,-0.0184,-0.0199,-0.0214,-0.0222,-0.0226,-0.02,-0.0226,-0.0225,-0.0224,-0.0232,-0.0232,-0.0224,-0.0224,-0.0224,0,0.0024,0.0038,0.0022,0.003,0.0029,-0.0005,0.0005,-0.0011,-0.0043,-0.0051,-0.007,-0.0129,-0.016,-0.018,-0.0188,-0.021,-0.0219,-0.0193,-0.0222,-0.0222,-0.0222,-0.023,-0.0231,-0.0222,-0.0222,-0.0223,-0.0223,0,0.0049,0.0059,0.0065,0.0071,0.0065,0.0065,0.0046,0.0036,0.0013,-0.001,-0.0043,-0.0094,-0.0126,-0.0151,-0.0173,-0.0192,-0.0196,-0.0218,-0.0214,-0.0219,-0.0228,-0.0229,-0.022,-0.0221,-0.0221,-0.0221,0,0,0.0066,0.0082,0.0084,0.0098,0.0088,0.009,0.0091,0.008,0.0082,0.0034,0.0027,-0.0034,-0.0069,-0.009,-0.013,-0.0158,-0.0176,-0.0184,-0.0186,-0.0174,-0.0216,-0.0221,-0.0223,-0.0201,-0.0201,-0.0202,-0.0219,0,0.009,0.0126,0.0122,0.0151,0.0171,0.0149,0.0156,0.0139,0.0111,0.0094,0.0032,0.0005,-0.0042,-0.0063,-0.0099,-0.0162,-0.0179,-0.0168,-0.0227,-0.0228,-0.0218,-0.0225,-0.0202,-0.022,-0.0221,-0.0221,-0.0221,0,0.0119,0.0142,0.0183,0.0206,0.0212,0.0221,0.0229,0.0227,0.0193,0.0168,0.0126,0.0078,0.0027,-0.0017,-0.0103,-0.0092,-0.0142,-0.0191,-0.0193,-0.0207,-0.0236,-0.0219,-0.0224,-0.0224,-0.0224,-0.0224,-0.0224,0,0.0153,0.0184,0.0224,0.0232,0.0251,0.0263,0.0266,0.0249,0.0255,0.0215,0.0207,0.0137,0.01,0.0024,-0.0082,-0.0089,-0.0176,-0.0199,-0.0243,-0.0243,-0.0247,-0.0248,-0.0244,-0.0244,-0.0244,-0.0244,-0.0244,0,0.0184,0.0215,0.0246,0.0266,0.031,0.0305,0.0335,0.0323,0.0313,0.0322,0.025,0.0235,0.0108,0.0037,-0.0056,-0.0154,-0.0154,-0.023,-0.025,-0.0233,-0.0232,-0.0248,-0.0248,-0.0244,-0.0244,-0.0244,-0.0244,0,0.0215,0.0234,0.0281,0.0314,0.0327,0.0358,0.0386,0.0405,0.0389,0.0397,0.039,0.0312,0.0215,0.0091,-0.004,-0.0113,-0.0212,-0.0243,-0.02,-0.0219,-0.0264,-0.0262,-0.0282,-0.0283,-0.0283,-0.0283,-0.0284,0,0.0233,0.0266,0.032,0.0351,0.0367,0.0411,0.044,0.0442,0.046,0.0443,0.0448,0.0365,0.0296,0.012,-0.002,-0.0183,-0.0212,-0.025,-0.027,-0.0251,-0.0268,-0.0266,-0.0264,-0.0284,-0.0284,-0.0284,-0.0284,0,0.0271,0.0293,0.0327,0.0391,0.0432,0.0485,0.0521,0.0544,0.0546,0.0536,0.05,0.04,0.029,0.0131,0.0001,-0.012,-0.0224,-0.0254,-0.0254,-0.0273,-0.0253,-0.027,-0.0267,-0.0285,-0.0285,-0.0285,-0.0285,0,0.0293,0.0322,0.0367,0.0422,0.048,0.0535,0.0556,0.0576,0.0592,0.0568,0.0556,0.0428,0.035,0.0165,0.0044,-0.0079,-0.0112,-0.0147,-0.0153,-0.0154,-0.0126,-0.0082,-0.007,0,0,0,0,0,0.0313,0.0342,0.0395,0.045,0.0511,0.0544,0.0599,0.0615,0.062,0.0605,0.0582,0.0477,0.0289,0.0205,0.0083,0.0031,-0.0138,-0.0116,-0.0182,-0.0291,-0.029,-0.0281,0,0,0,0,0,0,0.0322,0.0369,0.0392,0.0466,0.0507,0.0573,0.0611,0.062,0.061,0.0596,0.0498,0.0446,0.0261,0.0354,0.0077,0.0039,-0.0018,-0.0207,-0.021,-0.0291,-0.029,-0.0289,-0.028,0,0,0,0,0]}]]